"Pseudo-MPEC" for CD8VCH2

Created 2025 Apr 28 10:31:05 UT using Find_Orb

Click here for an explanation of pseudo-MPECs

 
 Astrometry: 
     CD8VCH2*1C2025 04 26.32280913 19 19.981+01 45 33.70   ~4Q8l 20.95GVNEOCPG96
     CD8VCH2 1C2025 04 26.32793313 19 22.764+01 44 28.43   ~4Q8l 21.32GVNEOCPG96
     CD8VCH2 1C2025 04 26.33306113 19 25.673+01 43 22.33   ~4Q8l 21.30GVNEOCPG96
     CD8VCH2 1C2025 04 26.33819213 19 28.528+01 42 15.73   ~4Q8l 21.27GVNEOCPG96
     CD8VCH2 KC2025 04 26.34643513 19 33.251+01 40 29.24   ~4Q92 21.31GVNEOCPI52
     CD8VCH2 KC2025 04 26.34843913 19 34.309+01 40 03.25   ~4Q92 21.92GVNEOCPI52
     CD8VCH2 KC2025 04 26.35045013 19 35.396+01 39 37.66   ~4Q92       VNEOCPI52
     CD8VCH2 KC2025 04 26.35246413 19 36.556+01 39 11.09   ~4Q92 21.41GVNEOCPI52
     CD8VCH2 pC2025 04 26.89347913 25 16.09 -00 19 49.9    ~4QMH 21.4 GVNEOCPL01
     CD8VCH2 pC2025 04 26.89545713 25 17.24 -00 20 17.3    ~4QMH 21.5 GVNEOCPL01
     CD8VCH2 pC2025 04 26.89793013 25 18.66 -00 20 50.9    ~4QMH 21.3 GVNEOCPL01
     CD8VCH2 |C2025 04 27.12735413 27 43.960-01 09 08.60   ~4R8l 21.1 GVNEOCP807
     CD8VCH2 |C2025 04 27.13294213 27 47.220-01 10 24.30   ~4R8l 21.1 GVNEOCP807
     CD8VCH2 |C2025 04 27.13854013 27 50.470-01 11 40.00   ~4R8l 21.2 GVNEOCP807
     CD8VCH2 KC2025 04 27.29944513 29 30.336-01 50 41.35   ~4R7V 21.06GVNEOCPV06
     CD8VCH2 KC2025 04 27.30094813 29 31.218-01 51 01.76   ~4R7V 20.80GVNEOCPV06
     CD8VCH2 KC2025 04 27.30245013 29 32.100-01 51 22.46   ~4R7V 20.96GVNEOCPV06
     CD8VCH2 KC2025 04 27.30396913 29 32.982-01 51 42.91   ~4R7V 20.94GVNEOCPV06
     CD8VCH2 KC2025 04 28.21437213 39 34.877-05 22 26.94   ~4S5l       VNEOCPI52
     CD8VCH2 KC2025 04 28.21609713 39 35.982-05 22 51.17   ~4S5l 21.04GVNEOCPI52
     CD8VCH2 KC2025 04 28.21781513 39 37.055-05 23 15.07   ~4S5l 20.97GVNEOCPI52
     CD8VCH2 KC2025 04 28.21953513 39 38.106-05 23 39.12   ~4S5l 20.86GVNEOCPI52

Station data:
(807) Cerro Tololo Observatory, La Serena  (S30.169133 W70.805900)  Chile.
   Observer R. Holmes. 0.61-m f/6.5 astrograph + CCD.
(G96) Mt. Lemmon Survey  (N32.442729 W110.788720)  US/Arizona.  Observer E.
   J. Christensen.  + 10K CCD.
(I52) Steward Observatory, Mt. Lemmon Station  (N32.442570 W110.788920)
   US/Arizona.  Observers T. A. Pruyne, B. M. Africano, E. J. Christensen, G.
   A. Farneth, D. C. Fuls, A. R. Gibbs, A. D. Grauer, H. Gröller, J. A.
   Johnson, R. A. Kowalski, S. M. Larson, G. J. Leonard, D. Rankin, R. L.
   Seaman, F. C. Shelly, K. W. Wierzchoś. 1.0-m prime focus + CCD.
(L01) Višnjan Observatory, Tičan  (N45.290897 E13.749300)  Croatia.
   Observers K. Korlević, D. Pujagic, V. Dobos. Measurers D. Pujagic, K.
   Korlević. 1.0-m f/2.9 reflector + CCD.
(V06) Catalina Sky Survey-Kuiper  (N32.416871 W110.732550)  US/Arizona.
   Observers T. A. Pruyne, B. M. Africano, E. J. Christensen, G. A. Farneth,
   D. C. Fuls, A. R. Gibbs, A. D. Grauer, H. Gröller, J. A. Johnson, R. A.
   Kowalski, S. M. Larson, G. J. Leonard, D. Rankin, R. L. Seaman, F. C.
   Shelly, K. W. Wierzchoś. 1.55-m reflector + CCD.

Orbital elements:  CD8VCH2
   Perihelion 2025 Apr 27.06366 +/- 0.00826 TT =  1:31:40 (JD 2460792.56366)
Epoch 2025 Apr 28.0 TT = JDT 2460793.5   Earth MOID: 0.0551   Ju: 0.3903
M   0.19481430 +/- 0.0026           (J2000 ecliptic)             AutoNEOCP
n   0.20805892 +/- 0.00126          Peri.  176.69624 +/- 0.008
a   2.82062367 +/- 0.0114           Node    39.11698 +/- 0.0007
e   0.6236314 +/- 0.00148           Incl.    7.21984 +/- 0.011
P   4.73716                H 26.62  G  0.15   U  8.3
q 1.06159393 +/- 0.000109    Q 4.57965341 +/- 0.0227
From 22 observations 2025 Apr. 26-28 (45.5 hr); mean residual 0".39
Residuals in arcseconds: 
250426 G96  .25+  1.1-    250426 L01  .16+  .99+    250427 V06  .03+  .16-    
250426 G96  .86-  .13-    250426 L01  .12+  .00     250427 V06  .12-  .08+    
250426 G96  .17-  .12+    250426 L01  .19-  .58-    250428 I52  .49-  .45-    
250426 G96  .38-  .08-    250427 807  .03-  .12+    250428 I52  .06+  .27-    
250426 I52  1.2+  .16+    250427 807  .22+  .06-    250428 I52  .19+  .14+    
250426 I52  .18+  .13+    250427 807  .25+  .09-    250428 I52  .02-  .42+    
250426 I52  .45-  .59+    250427 V06  .04+  .02+    
250426 I52  .03-  .11+    250427 V06  .03+  .08+    

Ephemerides (geocentric):
Date (UTC) HH   RA             Dec           delta  r     elong  mag " sig PA
---- --------  ------------   ------------  ------ ------ -----  --- --------
2025 04 28 11  13 42 16.103   -06 18 26.77  .05619 1.0618 167.3 21.2 .261 138
2025 04 28 12  13 42 44.398   -06 28 19.19  .05616 1.0618 167.5 21.2 .272 138
2025 04 28 13  13 43 12.748   -06 38 12.25  .05613 1.0618 167.6 21.2 .283 137
2025 04 28 14  13 43 41.154   -06 48 05.94  .05610 1.0618 167.8 21.2 .295 137
2025 04 28 15  13 44 09.614   -06 58 00.23  .05606 1.0618 167.9 21.2 .307 137
2025 04 28 16  13 44 38.129   -07 07 55.12  .05603 1.0618 168.1 21.2 .319 136
2025 04 28 17  13 45 06.699   -07 17 50.57  .05600 1.0618 168.2 21.2 .331 136
2025 04 28 18  13 45 35.323   -07 27 46.57  .05597 1.0618 168.4 21.2 .344 136
2025 04 28 19  13 46 04.001   -07 37 43.10  .05595 1.0618 168.5 21.2 .357 136
2025 04 28 20  13 46 32.734   -07 47 40.15  .05592 1.0619 168.7 21.2 .370 135
2025 04 28 21  13 47 01.520   -07 57 37.69  .05589 1.0619 168.9 21.2 .384 135
2025 04 28 22  13 47 30.360   -08 07 35.70  .05587 1.0619 169.0 21.2 .398 135
2025 04 28 23  13 47 59.254   -08 17 34.17  .05584 1.0619 169.2 21.1 .412 135
2025 04 29 00  13 48 28.201   -08 27 33.07  .05582 1.0619 169.3 21.1 .427 135
2025 04 29 01  13 48 57.201   -08 37 32.39  .05579 1.0619 169.5 21.1 .441 134
2025 04 29 02  13 49 26.255   -08 47 32.11  .05577 1.0619 169.6 21.1 .456 134
2025 04 29 03  13 49 55.361   -08 57 32.20  .05575 1.0619 169.8 21.1 .472 134
2025 04 29 04  13 50 24.519   -09 07 32.65  .05573 1.0620 169.9 21.1 .487 134
2025 04 29 05  13 50 53.730   -09 17 33.44  .05571 1.0620 170.1 21.1 .503 134
2025 04 29 06  13 51 22.994   -09 27 34.54  .05569 1.0620 170.2 21.1 .520 134
2025 04 29 07  13 51 52.309   -09 37 35.94  .05567 1.0620 170.4 21.1 .536 134
2025 04 29 08  13 52 21.676   -09 47 37.62  .05565 1.0620 170.5 21.1 .553 134
2025 04 29 09  13 52 51.094   -09 57 39.55  .05563 1.0620 170.7 21.1 .570 134
2025 04 29 10  13 53 20.564   -10 07 41.72  .05561 1.0620 170.8 21.1 .587 134
2025 04 29 11  13 53 50.085   -10 17 44.10  .05560 1.0621 171.0 21.1 .605 134
2025 04 29 12  13 54 19.657   -10 27 46.68  .05558 1.0621 171.1 21.1 .623 134
2025 04 29 13  13 54 49.280   -10 37 49.44  .05557 1.0621 171.3 21.1 .641 134
2025 04 29 14  13 55 18.953   -10 47 52.34  .05555 1.0621 171.4 21.0 .659 134
2025 04 29 15  13 55 48.676   -10 57 55.39  .05554 1.0621 171.5 21.0 .678 134
2025 04 29 16  13 56 18.449   -11 07 58.54  .05553 1.0621 171.7 21.0 .697 134
2025 04 29 17  13 56 48.272   -11 18 01.78  .05552 1.0622 171.8 21.0 .716 134
2025 04 29 18  13 57 18.145   -11 28 05.10  .05551 1.0622 172.0 21.0 .736 134
2025 04 29 19  13 57 48.066   -11 38 08.47  .05550 1.0622 172.1 21.0 .756 134
2025 04 29 20  13 58 18.037   -11 48 11.86  .05549 1.0622 172.2 21.0 .776 134
2025 04 29 21  13 58 48.057   -11 58 15.27  .05548 1.0622 172.4 21.0 .796 134
2025 04 29 22  13 59 18.125   -12 08 18.66  .05547 1.0623 172.5 21.0 .817 134
2025 04 29 23  13 59 48.241   -12 18 22.02  .05547 1.0623 172.6 21.0 .838 134
2025 04 30 00  14 00 18.405   -12 28 25.32  .05546 1.0623 172.8 21.0 .859 134
2025 04 30 01  14 00 48.617   -12 38 28.55  .05546 1.0623 172.9 21.0 .881 134
2025 04 30 02  14 01 18.877   -12 48 31.68  .05545 1.0623 173.0 21.0 .902 134
2025 04 30 03  14 01 49.183   -12 58 34.69  .05545 1.0624 173.2 21.0 .924 134
2025 04 30 04  14 02 19.537   -13 08 37.57  .05544 1.0624 173.3 21.0 .947 134
2025 04 30 05  14 02 49.937   -13 18 40.28  .05544 1.0624 173.4 21.0 .969 134
2025 04 30 06  14 03 20.384   -13 28 42.82  .05544 1.0624 173.5 21.0 0.99 134
2025 04 30 07  14 03 50.877   -13 38 45.15  .05544 1.0624 173.6 20.9 1.01 134
2025 04 30 08  14 04 21.415   -13 48 47.26  .05544 1.0625 173.7 20.9 1.04 134
2025 04 30 09  14 04 51.999   -13 58 49.12  .05544 1.0625 173.8 20.9 1.06 134
2025 04 30 10  14 05 22.629   -14 08 50.72  .05544 1.0625 173.9 20.9 1.09 134